Location: Bush Observatory
(40.2653°N, 94.3194°W)
Time: 02:48:37
(UTC-05:00)

Iridium 13 - Visible Passes

Search period start: 01 August 2014 00:00
Search period end: 11 August 2014 00:00
Orbit: 776 x 779 km, 86.4° (Epoch: 31 July)

Date Brightness Start Highest point End Pass type
(mag) Time Alt. Az. Time Alt. Az. Time Alt. Az.
01 Aug 7.1 21:35:37 10° NNW 21:40:20 36° W 21:45:03 10° SSW visible
02 Aug 6.0 21:01:46 10° N 21:06:57 68° W 21:12:06 10° S visible
03 Aug 8.4 22:10:58 10° NW 22:13:30 14° WNW 22:16:02 10° WSW visible
04 Aug 7.8 21:36:06 10° NNW 21:40:18 25° W 21:44:30 10° SW visible
05 Aug 6.7 21:02:01 10° NNW 21:06:59 46° W 21:11:55 10° SSW visible
07 Aug 8.3 21:36:51 10° NW 21:40:13 18° W 21:43:35 10° WSW visible
08 Aug 7.5 21:02:24 10° NNW 21:06:58 32° W 21:11:32 10° SW visible
10 Aug 8.7 21:38:11 10° NW 21:40:05 12° WNW 21:41:59 10° W visible
